www.pogodaiklimat.ru

Погода и климат >> Архив погоды >> Россия >> Ростовская область >> Ростов-на-Дону


АРХИВ ПОГОДЫ в Ростове-на-Дону

Время (UTC), дата Ветер
(напр.,м/с)
 
Видим.   Явления Облачность Т
(С)
Тd
(С)
f
(%)
Тe
(С)
Тes
(С)
Комфортность P
(гПа)
Po
(гПа)
Тmin
(С)
Tmax
(С)
R
(мм)
R24
(мм)
S
(см)
06 17.02 н/о 10/8 600 м
[Sc Ac und]
+0.3 -1.3 89 1017.9 1007.4 +0.3
09 17.02 н/о 10/8 600 м
[Sc Ac und]
+1.2 -0.9 86 1016.1 1005.7
12 17.02 н/о 10/5 600 м
[Sc Ac und]
+1.4 -0.4 88 1013.3 1002.9
15 17.02 н/о 10/6 600 м
[Sc Ac und]
+2.2 +0.2 87 1010.5 1000.2 +2.3
18 17.02 н/о дымка 8/8 600 м
[Sc]
+3.7 +1.9 88 1009.2 999.0
21 17.02 н/о дымка 10/6 600 м
[Sc Ac und]
+3.3 +1.1 85 1009.2 998.9
00 18.02 н/о дымка 10/6 600 м
[Sc Ac und]
+3.3 -0.7 75 1009.6 999.3
03 18.02 н/о дымка 8/8 600 м
[Sc]
+1.9 -1.3 79 1009.8 999.5 +1.9
06 18.02 н/о 6/0
[Ac trans]
+1.9 -2.3 74 1012.3 1001.9 +0.8
09 18.02 н/о 5/5 600 м
[Sc]
+3.9 -6.3 47 1013.6 1003.3
12 18.02 н/о 8/8 600 м
[Sc]
+3.7 -7.3 44 1014.5 1004.2
15 18.02 н/о 3/3 600 м
[Sc]
+0.8 -7.0 56 1016.7 1006.3 +4.8
18 18.02 н/о 5/0
[Ac trans]
-1.1 -8.1 59 1018.8 1008.3
21 18.02 н/о 10/5 600 м
[Sc Ac und]
-0.9 -9.2 53 1020.8 1010.2
00 19.02 н/о ясно -3.5 -9.2 65 1022.7 1012.0
03 19.02 н/о ясно -5.3 -9.7 71 1024.0 1013.2 -5.4
06 19.02 н/о 3/0
[Ci fib]
-3.8 -10.0 62 1026.3 1015.6 -6.1
09 19.02 н/о ясно -0.2 -12.6 39 1027.5 1016.9
12 19.02 н/о ясно +1.1 -11.9 37 1027.3 1016.7
15 19.02 н/о ясно -0.9 -11.5 44 1027.8 1017.2 +1.5
18 19.02 н/о ясно -3.3 -10.9 56 1027.8 1017.1
21 19.02 н/о ясно -4.1 -10.6 61 1027.1 1016.4
00 20.02 н/о ясно -4.5 -11.6 58 1025.8 1015.1
03 20.02 н/о ясно -5.1 -12.8 55 1024.3 1013.5 -5.1
06 20.02 н/о ясно -1.9 -12.5 44 1023.2 1012.6 -5.9
09 20.02 н/о 6/6 600 м
[Sc]
+4.2 -8.0 41 1021.1 1010.8
12 20.02 н/о 3/3 600 м
[Sc]
+7.6 -2.6 48 1018.4 1008.2
15 20.02 н/о ясно +4.0 -2.3 63 1017.8 1007.5 +8.3
18 20.02 н/о ясно +1.7 -2.1 76 1017.6 1007.2
21 20.02 н/о 8/0
[Ac trans]
+1.4 -2.1 77 1016.1 1005.7
00 21.02 н/о 9/0
[Ac trans]
+1.3 -1.2 83 1015.0 1004.7
03 21.02 н/о 10/5 600 м
[Sc Ac und]
+2.3 +0.2 86 1013.8 1003.5 +0.9
06 21.02 н/о дымка {дождь} 10/6 600 м
[Sc Ac und]
+3.3 +2.3 93 1013.4 1003.1
09 21.02 н/о 9/5 600 м
[Cb calv Ac trans]
+6.0 +1.9 75 1012.3 1002.1
12 21.02 н/о 10/6 600 м
[Cb calv Ac und]
+5.6 -0.3 66 1010.9 1000.7
15 21.02 н/о 10/6 600 м
[Cb calv Ac und]
+3.9 0.0 76 1010.9 1000.6 +7.6 0.2
18 21.02 н/о в посл. час снег 9/9 600 м
[Sc]
+1.4 -1.0 84 1012.7 1002.3
21 21.02 н/о 8/0
[Ac trans]
-0.4 -6.2 65 1013.9 1003.4
00 22.02 н/о ясно -1.1 -9.2 54 1014.3 1003.8
03 22.02 н/о 9/0
[Ac trans]
-2.5 -9.0 61 1015.4 1004.8 -2.6 0.0
06 22.02 н/о 10/5 600 м
[Sc Ac und]
-2.5 -12.0 48 1016.1 1005.5
09 22.02 н/о 10/4 300 м
[Sc Ac und]
-0.3 -11.3 43 1016.6 1006.1
12 22.02 н/о 10/4 600 м
[Sc Ac und]
-0.1 -12.9 37 1016.7 1006.2
15 22.02 н/о 10/5 600 м
[Sc Ac und]
-1.5 -10.6 50 1017.8 1007.3 +0.4
18 22.02 н/о снег 10/5 600 м
[Sc Ac und]
-3.9 -5.8 87 1020.3 1009.6
21 22.02 н/о снег 10/6 600 м
[Sc Ac und]
-5.5 -7.1 88 1021.1 1010.4
00 23.02 н/о сильн. снег 10/5 600 м
[Sc Ac und]
-6.5 -7.9 90 1023.0 1012.2
03 23.02 н/о слаб. снег 10/8 600 м
[Sc Ac und]
-6.7 -8.3 88 1024.3 1013.5 -6.7 6 10
06 23.02 н/о слаб. снег 10/8 600 м
[Sc Ac und]
-6.2 -7.8 88 1026.3 1015.5 -6.8
09 23.02 н/о слаб. снег 10/6 600 м
[Sc Ac und]
-4.7 -6.9 85 1027.8 1017.0
12 23.02 н/о слаб. снег 10/8 600 м
[Sc Ac und]
-3.7 -7.6 74 1028.3 1017.6
15 23.02 н/о слаб. снег 10/8 600 м
[Sc Ac und]
-4.5 -8.7 72 1029.7 1018.9 -3.6 1
18 23.02 н/о {снег} 10/5 600 м
[Sc Ac und]
-5.7 -10.1 71 1031.3 1020.4
21 23.02 н/о ясно -8.0 -11.2 78 1032.0 1021.0
00 24.02 н/о 8/0
[Ac trans Ci fib]
-9.4 -11.6 84 1032.1 1021.2
03 24.02 н/о 3/0
[Ci fib]
-10.3 -12.0 87 1032.4 1021.4 -10.3 0.0 10

 

Местоположение метеостанции Ростов-на-Дону (Ростовская область, Россия): широта 47.27 долгота 39.82 высота над уровнем моря 75 м.

В архиве по умолчанию представлена погода в Ростове-на-Дону за последнюю неделю. Архивные данные за месяц целиком и за предыдущие месяцы, начиная с января 2011 года, Вы можете получить, выбрав интересующий диапазон дат из раскрывающегося списка и нажав кнопку "Ввод!".


*Определитесь, кто Вы:
робот инопланетянин человек

Внимание! Время в таблицах - всемирное. Для получения местного времени необходимо прибавить поправку, которая равна 3 ч.

Смотрите также архив погоды в соседних городах и на ближайших метеорологических станциях:

Погода в Аэропорту Платов (Ростовская область, Россия) (26 км)
Погода в Шахтах (Ростовская область, Россия) (59 км)
Погода в Зерноград (Ростовская область, Россия) (60 км)
Погода в Таганроге (Ростовская область, Россия) (70 км)
Погода в Матвеевом Кургане (Ростовская область, Россия) (78 км)
Погода в Семикаракорске (Ростовская область, Россия) (81 км)
Погода в Маргаритово (Ростовская область, Россия) (81 км)
Погода в Кущевской (Краснодарский край, Россия) (84 км)
Погода в Константиновске (Ростовская область, Россия) (102 км)
Погода в Староминская (Краснодарский край, Россия) (102 км)

Пояснения к столбцам:

Ветер - указаны скорость ветра в м/с - средняя за 10 мин, порывы в срок и между сроками (в фигурных скобках) и направление, откуда дует ветер: С - северный, СВ - северо-восточный, В - восточный, ЮВ - юго-восточный, Ю - южный, ЮЗ - юго-западный, З - западный, СЗ - северо-западный.
Видимость - горизонтальная дальность видимости в метрах или километрах. При видимости от 1 до 10 км при отсутствии осадков обычно наблюдается дымка, при ухудшении видимости до 1 км и менее - туман. В сухую погоду видимость может ухудшаться дымом, пылью или мглою.
Явления - указаны атмосферные явления, наблюдавшиеся в срок или в последний час перед сроком; фигурными скобками обозначены явления, наблюдавшиеся между сроками (за 1-3 часа до срока); квадратными скобками обозначены град или гололедные отложения с указанием их диаметра в мм.
Облачность - указаны через наклонную черту общая и нижняя облачность в баллах и высота нижней границы облаков в метрах; квадратными скобками обозначены формы облаков: Ci - перистые, Cs - перисто-слоистые, Cc - перисто-кучевые, Ac - высококучевые, As - высокослоистые, Sc - слоисто-кучевые, Ns - слоисто-дождевые, Cu - кучевые, Cb - кучево-дождевые. Подробнее классификацию облаков см. в Атласе облаков (PDF).
T - Температура воздуха - температура, измеренная на высоте 2 м над землей.
Td - Температура точки росы - температура, при понижении до которой содержащийся в воздухе водяной пар достигнет насыщения.
f - Относительная влажность воздуха - влажноcть воздуха, измеренная на высоте 2 м над землей.
Te - Эффективная температура - температура, которую ощущает одетый по сезону человек в тени. Характеристика душности погоды. При расчете учитывается влияние влажности воздуха и скорости ветра на теплоощущения человека.
Tes - Эффективная температура на солнце - температура, которую ощущает человек, с поправкой на солнечный нагрев. Характеристика знойности погоды. Зависит от высоты солнца над горизонтом, облачности и скорости ветра. Ночью, в пасмурную погоду, а также при ветре 12 м/с и более поправка равна нулю.
P - Атмосферное давление - приведенное к уровню моря атмосферное давление.
Po - Атмосферное давление - измеренное на уровне метеостанции атмосферное давление.
Tmin - Минимальная температура - минимум температуры воздуха на высоте 2 м над землей.
Tmax - Максимальная температура - максимум температуры воздуха на высоте 2 м над землей.
R - Количество осадков - Количество выпавших осадков за период времени, мм. При наведении курсора мыши на число - период времени, за который выпало указанное количество осадков.
R24 - Количество осадков - Количество выпавших осадков за 24 часа, мм.
S - Снежный покров - Высота снежного покрова, см. При наведении курсора мыши на число - состояние снежного покрова и степень покрытия местности в баллах.